Starlink 31844

operational
NORAD ID: 60583 Int'l Des: 2024-150 Owner: SPXS Country: US Constellation: starlink
LEOCIRCULAR

Starlink 31844について

説明を読み込み中...

リアルタイム位置

3D地球を読み込み中...

次回通過

高度履歴

Altitude vs Time

uPlot chart will show altitude changes over time

軌道要素

1 60583U 24150A 25260.06992045 -.00000385 00000-0 -88761-6 0 9998
2 60583 53.1620 33.1765 0001058 90.1770 269.9352 15.30190633 61468
Epoch: Sep 17, 2025 • Age: 24 hours

現在のステータス

高度 481.7 km
速度 7.62 km/s
衛星直下点 -21.73°S, 162.93°W
打ち上げ日 Aug 20, 2024
運用期間 1 years
タイプ internet

技術仕様

分類 Payload
質量 730.00 kg
乾燥質量 700.00 kg
総質量 730.00 kg
長さ 0.30 m
直径 4.10 m
スパン 29.00 m
形状 Box + pan
製造者 SPXS
バスタイプ Starlink V2M
フェーズステータス In Orbit
所有者/国 SPXS/US

大規模コンステレーション

Loading constellations...